Location: Newark
(42.7133°N, 87.7910°W)
Time: 08:24:37
(UTC+00:00)

A-11 Canister half - Pass Details

Date: 26 September 2019
Orbit: 1527 x 1682 km, 47.3° (Epoch: 14 October)

Event Time Altitude Azimuth Distance (km) Brightness Sun altitude
Exits shadow 08:14:52 67° 141° (SE) 1,656 9.0 -36.3°
Drops below altitude 10° 08:24:07 10° 67° (ENE) 3,779 11.8 -35.0°
Sets 08:27:16 0° 65° (ENE) 4,786 12.6 -34.6°
